Location: Newark
(34.0111°N, 88.4892°W)
Time: 08:17:55
(UTC+00:00)

Oscar 19 - Visible Passes

Search period start: 06 June 2020 00:00
Search period end: 16 June 2020 00:00
Orbit: 773 x 790 km, 98.7° (Epoch: 06 June)

Date Brightness Start Highest point End Pass type
(mag) Time Alt. Az. Time Alt. Az. Time Alt. Az.
06 Jun 12.6 07:07:08 10° NE 07:10:34 18° E 07:10:58 18° E visible
06 Jun 11.1 08:45:09 10° N 08:50:00 43° WNW 08:51:32 34° WSW visible
07 Jun 10.5 08:13:02 10° NNE 08:18:12 89° ESE 08:19:14 58° SSW visible
08 Jun 11.4 07:41:24 10° NNE 07:46:15 41° E 07:46:55 39° ESE visible
08 Jun 12.2 09:21:34 10° NNW 09:25:11 20° WNW 09:27:29 15° W visible
09 Jun 12.5 07:10:31 10° NE 07:14:10 19° E 07:14:38 19° ESE visible
09 Jun 11.3 08:48:47 10° N 08:53:33 40° WNW 08:55:11 31° WSW visible
10 Jun 10.5 08:16:36 10° NNE 08:21:45 85° WNW 08:22:53 56° SSW visible
11 Jun 11.3 07:44:55 10° NNE 07:49:49 44° E 07:50:35 41° SE visible
11 Jun 12.3 09:25:17 10° NNW 09:28:43 18° WNW 09:31:08 14° W visible
12 Jun 12.4 07:13:55 10° NE 07:17:45 21° E 07:18:16 21° ESE visible
12 Jun 11.4 08:52:24 10° N 08:57:05 37° WNW 08:58:49 29° WSW visible
13 Jun 10.5 08:20:10 10° N 08:25:19 79° WNW 08:26:31 53° SSW visible
14 Jun 11.2 07:48:26 10° NNE 07:53:24 48° E 07:54:13 44° SE visible
14 Jun 12.4 09:29:01 10° NNW 09:32:15 17° WNW 09:34:45 12° W visible
15 Jun 12.3 07:17:21 10° NE 07:21:20 23° E 07:21:54 22° ESE visible
15 Jun 11.5 08:56:02 10° N 09:00:38 34° WNW 09:02:26 27° WSW visible
